Find Starlink 36727

NORAD ID: 67875 Int'l Des: 2026-034 Owner: SPXS Country: US Constellation: starlink operational
LEOCIRCULAR

Live Position

Loading 3D Globe...

About Starlink 36727

Description loading...

Upcoming Passes

Passes for default location (London). Set your location on the main map for personalized predictions.

Altitude History

Loading altitude history...

Two-Line Element Set

1 67875U 26034AB 26112.07901493 .00000829 00000-0 40126-4 0 9999
2 67875 53.1608 2.3530 0001133 86.3273 273.7857 15.30190934 10687
Epoch: Apr 22, 2026 • Age: 16 hours

Current Status

Altitude 477.0 km
Velocity 7.63 km/s
Sub-Earth Point 33.47°N, 88.42°W
Launch Date Feb 20, 2026
Age 0.1 years
Type internet

Technical Details

Classification Payload
Mass 575.00 kg
Dry Mass 530.00 kg
Total Mass 575.00 kg
Length 0.30 m
Diameter 4.10 m
Span 29.00 m
Shape Box + pan
Manufacturer SPXS
Bus Type Starlink V2MO
Phase Status In Orbit
Owner/State SPXS/US

Most Searched